This demonstration page uses our WeatherBlox Daily Observations layout. Learn more.

40.92945, -100.16068

Hourly Observations for June 9, 2015

Temp ( °F °C ) Dew Point ( °F °C ) Humidity (%) Winds ( mph kmh ) Pressure ( in mb ) Visibility ( mi km ) Precip ( " mm )
12:15 am 00:15 Clear 67 19.5 58 14.4 73 73 S 5 7 29.88 1012 10 16.0934 N/A
12:35 am 00:35 Clear 66 19 57 13.9 72 72 S 5 7 29.91 1013 7 11.26538 N/A
12:55 am 00:55 Clear 66 18.8 56 13.4 71 71 Calm 29.91 1013 10 16.0934 N/A
1:15 am 01:15 Clear 65 18.2 56 13.6 75 75 Calm 29.91 1013 10 16.0934 N/A
1:35 am 01:35 Clear 64 18 56 13.2 74 74 Calm 29.91 1013 10 16.0934 N/A
1:55 am 01:55 Clear 62 16.5 57 14 85 85 Calm 29.91 1013 10 16.0934 N/A
2:15 am 02:15 Clear 60 15.5 56 13.5 88 88 Calm 29.94 1014 10 16.0934 N/A
2:35 am 02:35 Clear 60 15.8 57 14 89 89 Calm 29.94 1014 10 16.0934 N/A
2:55 am 02:55 Clear 61 16 57 14 88 88 Calm 29.94 1014 10 16.0934 N/A
3:15 am 03:15 Clear 59 15.2 56 13.3 89 89 Calm 29.94 1014 10 16.0934 N/A
3:35 am 03:35 Clear 60 15.5 57 13.7 89 89 Calm 29.88 1012 7 11.26538 N/A
3:55 am 03:55 Clear 59 15 56 13.4 90 90 Calm 29.91 1013 10 16.0934 N/A
4:15 am 04:15 Clear 59 15 56 13.5 91 91 Calm 29.91 1013 10 16.0934 N/A
4:35 am 04:35 Clear 59 14.8 56 13.5 92 92 Calm 29.91 1013 10 16.0934 N/A
4:55 am 04:55 Clear 58 14.5 55 13 91 91 Calm 29.91 1013 10 16.0934 N/A
5:15 am 05:15 Clear 58 14.7 55 13 90 90 Calm 29.91 1013 10 16.0934 N/A
5:35 am 05:35 Clear 58 14.3 56 13.1 93 93 Calm 29.91 1013 10 16.0934 N/A
5:55 am 05:55 Clear 58 14.5 56 13.2 92 92 Calm 29.91 1013 10 16.0934 N/A
6:15 am 06:15 Sunny 58 14.4 56 13.1 92 92 Calm 29.91 1013 10 16.0934 N/A
6:35 am 06:35 Sunny with Mist and Fog 58 14.5 56 13.1 91 91 Calm 29.91 1013 4 6.43736 N/A
6:55 am 06:55 Sunny 58 14.6 56 13.2 91 91 Calm 29.91 1013 10 16.0934 N/A
7:15 am 07:15 Sunny with Mist and Fog 61 16.1 59 14.9 93 93 Calm 29.88 1012 5 8.0467 N/A
7:35 am 07:35 Sunny 64 17.8 62 16.4 92 92 Calm 29.88 1012 10 16.0934 N/A
7:55 am 07:55 Sunny 67 19.4 63 17 86 86 Calm 29.88 1012 10 16.0934 N/A
8:15 am 08:15 Sunny 70 21 62 16.8 77 77 Calm 29.85 1011 10 16.0934 N/A
8:35 am 08:35 Sunny 73 22.6 62 16.8 70 70 Calm 29.83 1010 10 16.0934 N/A
8:55 am 08:55 Sunny 74 23.5 62 16.8 66 66 Calm 29.83 1010 10 16.0934 N/A
9:15 am 09:15 Sunny 77 25.2 63 17.1 61 61 Calm 29.8 1009 10 16.0934 N/A
9:35 am 09:35 Sunny 79 26.1 62 16.9 57 57 W 3 6 29.77 1008 10 16.0934 N/A
9:55 am 09:55 Sunny 82 27.6 62 16.7 51 51 WSW 6 9 29.77 1008 10 16.0934 N/A
10:15 am 10:15 Sunny 83 28.3 62 16.9 50 50 SW 6 9 29.77 1008 10 16.0934 N/A
10:35 am 10:35 Sunny 84 28.8 60 15.8 45 45 SW 6 9 29.77 1008 10 16.0934 N/A
10:55 am 10:55 Sunny 85 29.6 62 16.4 45 45 SW 7 11 29.74 1007 10 16.0934 N/A
11:15 am 11:15 Sunny 86 30.2 62 16.7 44 44 SW 6 9 29.74 1007 10 16.0934 N/A
11:35 am 11:35 Sunny 87 30.6 58 14.7 38 38 WSW 5 7 29.74 1007 10 16.0934 N/A
11:55 am 11:55 Sunny 88 31 61 16.2 41 41 SSW 6 9 29.74 1007 10 16.0934 N/A
12:15 pm 12:15 Sunny 88 31.3 62 16.9 42 42 SW 8 13 29.71 1006 10 16.0934 N/A
12:35 pm 12:35 Sunny 89 31.5 62 16.4 40 40 SW 9 15 29.71 1006 10 16.0934 N/A
12:55 pm 12:55 Sunny 90 32 61 16 38 38 SW 8 13 29.71 1006 10 16.0934 N/A
1:15 pm 13:15 Sunny 91 32.5 55 12.6 30 30 SSW 5 7 29.71 1006 10 16.0934 N/A
1:35 pm 13:35 Sunny 91 32.7 57 13.8 32 32 SSW 7 11 29.71 1006 10 16.0934 N/A
1:55 pm 13:55 Sunny 91 33 59 15.2 34 34 WSW 10 17 29.71 1006 10 16.0934 N/A
2:15 pm 14:15 Sunny 91 33 60 15.3 34 34 SSW 12 19 29.65 1004 10 16.0934 N/A
2:35 pm 14:35 Sunny 92 33.4 58 14.2 31 31 SW 9 15 29.65 1004 10 16.0934 N/A
2:55 pm 14:55 Sunny 92 33.6 54 12.4 27 27 SW 3 6 29.65 1004 7 11.26538 N/A
3:15 pm 15:15 Sunny 92 33.3 56 13.5 30 30 WSW 6 9 29.65 1004 10 16.0934 N/A
3:35 pm 15:35 Sunny 93 34.1 56 13.5 29 29 WSW 6 9 29.65 1004 10 16.0934 N/A
3:55 pm 15:55 Sunny 94 34.3 55 13 27 27 W 7 11 29.62 1003 10 16.0934 N/A
4:15 pm 16:15 Sunny 94 34.2 56 13.2 28 28 SW 7 11 29.62 1003 10 16.0934 N/A
4:35 pm 16:35 Sunny 93 34 55 13 28 28 SW 8 13 29.62 1003 10 16.0934 N/A
4:55 pm 16:55 Sunny 94 34.5 56 13.1 27 27 WSW 8 13 29.62 1003 10 16.0934 N/A
5:15 pm 17:15 Sunny 94 34.3 56 13.4 28 28 WSW 8 13 29.62 1003 10 16.0934 N/A
5:35 pm 17:35 Sunny 94 34.5 57 13.8 29 29 W 9 15 29.62 1003 10 16.0934 N/A
5:55 pm 17:55 Sunny 93 34.1 54 12.2 26 26 WSW 5 7 29.59 1002 10 16.0934 N/A
6:15 pm 18:15 Sunny 92 33.6 55 12.9 28 28 W 5 7 29.59 1002 10 16.0934 N/A
6:35 pm 18:35 Sunny 93 34 56 13.2 28 28 Calm 29.59 1002 10 16.0934 N/A
6:55 pm 18:55 Sunny 91 32.9 56 13.1 30 30 NW 7 11 29.59 1002 10 16.0934 N/A
7:15 pm 19:15 Sunny 91 32.8 56 13.1 30 30 W 5 7 29.59 1002 10 16.0934 N/A
7:35 pm 19:35 Sunny 91 32.8 58 14.2 32 32 WSW 3 6 29.59 1002 10 16.0934 N/A
7:55 pm 19:55 Sunny 91 32.8 62 16.8 38 38 Calm 29.59 1002 10 16.0934 N/A
8:15 pm 20:15 Sunny 87 30.7 66 18.8 49 49 S 3 6 29.62 1003 10 16.0934 N/A
8:35 pm 20:35 Sunny 86 30 65 18.2 49 49 SSW 3 6 29.62 1003 10 16.0934 N/A
8:55 pm 20:55 Sunny 84 28.9 65 18.2 52 52 Calm 29.62 1003 10 16.0934 N/A
9:15 pm 21:15 Clear 82 27.6 62 16.7 51 51 Calm 29.65 1004 7 11.26538 N/A
9:35 pm 21:35 Clear 78 25.4 66 18.7 67 67 Calm 29.65 1004 10 16.0934 N/A
9:55 pm 21:55 Clear 75 24 65 18.1 70 70 Calm 29.68 1005 10 16.0934 N/A
10:15 pm 22:15 Clear 75 24 64 17.5 67 67 Calm 29.71 1006 10 16.0934 N/A
10:35 pm 22:35 Clear 73 22.9 63 17 69 69 Calm 29.71 1006 10 16.0934 N/A
10:55 pm 22:55 Clear 74 23.4 62 16.4 65 65 Calm 29.71 1006 10 16.0934 N/A
11:15 pm 23:15 Clear 74 23.4 62 16.9 67 67 Calm 29.71 1006 10 16.0934 N/A
11:35 pm 23:35 Clear 72 22.1 63 17 73 73 Calm 29.71 1006 10 16.0934 N/A
11:55 pm 23:55 Clear 70 21.3 62 16.8 76 76 Calm 29.74 1007 7 11.26538 N/A

Powered by AerisWeather